Zurück zum Katalog

STARLINK-2745

AktivKommunikationVLEO
NORAD 48671·PAYLOAD·🇺🇸 United States

Gestartet May 26, 2021 von Cape Canaveral Space Force Station

Loading…

Nächste Überflüge (nächste 24 Stunden)

TLE

AktuellSource: CelesTrak SupGP

Epoche: Sep 14, 2026, 21:05 UTC

1 48671C 21044AK  26257.87895833 -.00016123  00000+0 -51846-3 0  2578
2 48671  53.1580 315.0960 0001273  85.9080 328.0835 15.31709981    11

Verfolge STARLINK-2745 in Echtzeit mit AllMySat

Download on the App Store